Terminal Aerodrome Forecast
Issued by NWS

Home | Current Version | Previous Version | Text Only | Print | Product List | Glossary On
Versions: 1 2 3 4 5 6 7 8 9 10 11 12 13 14 15 16 17
000
FTUS43 KDDC 150522
TAFHYS
TAF
KHYS 150522Z 1506/1606 30006KT P6SM FEW250
     FM152200 22012KT P6SM FEW250
     FM160000 21008KT P6SM FEW250=

USA.gov is the U.S. government's official web portal to all federal, state and local government web resources and services.